User: anonymous   Login
Location: ?????
(55.8833°N, 37.6500°E)
Time: 23:51:21
(UTC+00:00)
Language:

STARLINK-1056 - Orbit

View from above orbital plane
View from above orbital plane
View from above satellite
View from above satellite

Ground track
Ground track

The orbit data is extracted from the following two-line orbital elements,

1 44761C 19074BA  21127.80294001  .00008475  00000-0  56783-3 0  1279
2 44761  53.0549 238.4918 0001179 127.8682  17.1055 15.06392204    19
Epoch (UTC): 07 May 2021 19:16:14
Eccentricity: 0.0001179
inclination: 53.0549°
perigee height: 546 km
apogee height: 548 km
right ascension of ascending node: 238.4918°
argument of perigee: 127.8682°
revolutions per day: 15.06392204
mean anomaly at epoch: 17.1055°
orbit number at epoch: 1

The dashed part of the orbit path shows where the satellite is in the earth's shadow,  

DLR